www.pogodaiklimat.ru

Погода и климат >> Архив погоды >> Казахстан >> Аральск


АРХИВ ПОГОДЫ в Аральске

Время (UTC), дата Ветер
(напр.,м/с)
 
Видим.   Явления Облачность Т
(С)
Тd
(С)
f
(%)
Тe
(С)
Тes
(С)
Комфортность P
(гПа)
Po
(гПа)
Тmin
(С)
Tmax
(С)
R
(мм)
R24
(мм)
S
(см)
06 11.09 штиль 0 20 км 4/0
[Ac und]
+21.6 +4.1 32 +22 +31 комфорт 1028.6 1022.3 +12.7
09 11.09 В 4 20 км 8/8 1000 м
[Cu med, cong]
+23.6 +5.1 30 +23 +25 комфорт 1028.3 1022.1
12 11.09 штиль 0 20 км 8/8 1000 м
[Cu med, cong]
+24.0 +4.0 27 +24 +24 комфорт 1027.8 1021.6
15 11.09 С 4 н/о 3/0
[Ac trans]
+20.2 +2.7 31 +21 +21 комфорт 1028.5 1022.2 +24.3
18 11.09 С 5 н/о ясно +18.0 +3.8 39 +18 +18 по сезону 1029.1 1022.8 +24.3
21 11.09 С 4 н/о ясно +14.9 +5.0 52 +14 +14 по сезону 1029.1 1022.7
00 12.09 СВ 4 н/о ясно +13.4 +5.0 57 +12 +12 по сезону 1028.8 1022.4
03 12.09 С 4 20 км ясно +14.1 +4.6 53 +13 +14 прохладно 1029.2 1022.8
06 12.09 С 4 20 км ясно +21.6 +4.8 33 +22 +28 комфорт 1028.6 1022.4 +12.7
09 12.09 С 7 20 км ясно +24.1 +3.0 25 +23 +26 комфорт 1027.1 1020.9
12 12.09 СВ 7 20 км ясно +24.2 +2.3 24 +23 +24 комфорт 1025.5 1019.3
15 12.09 С 3 н/о ясно +21.1 +1.9 28 +21 +21 комфорт 1025.2 1018.9 +24.6
18 12.09 С 4 н/о ясно +18.2 +0.4 30 +18 +18 тепло 1025.4 1019.1 +24.6
21 12.09 С 4 н/о ясно +15.0 +2.1 42 +14 +14 по сезону 1024.9 1018.5
00 13.09 С 3 н/о ясно +14.1 +3.6 49 +13 +13 по сезону 1024.3 1017.9
03 13.09 С 2 20 км ясно +13.4 +3.6 51 +13 +14 прохладно 1024.9 1018.5
06 13.09 СВ 3 20 км ясно +21.6 +2.5 28 +21 +29 комфорт 1025.0 1018.7 +11.9
09 13.09 СВ 3 20 км ясно +23.9 +2.7 25 +23 +32 комфорт 1023.7 1017.5
12 13.09 СВ 6 20 км 3/0
[Ci sp]
+24.3 +1.3 22 +23 +24 комфорт 1021.9 1015.7
15 13.09 СВ 2 н/о 4/0
[Ci sp]
+20.4 +2.3 30 +21 +21 комфорт 1021.9 1015.6 +24.8
18 13.09 С 2 н/о 8/0
[Ac trans Ci sp]
+17.3 +2.1 36 +18 +18 тепло 1021.6 1015.3 +24.8
21 13.09 С 3 н/о 4/0
[Ac trans Ci sp]
+17.0 +2.1 37 +17 +17 тепло 1020.6 1014.3
00 14.09 С 4 н/о 8/0
[Ac und Ci sp]
+15.3 +2.9 43 +14 +14 тепло 1019.9 1013.5
03 14.09 С 4 20 км 9/4 600 м
[Cb calv Ac und]
+15.7 +3.6 44 +15 +15 по сезону 1020.4 1014.0
06 14.09 СВ 2 20 км 9/8 600 м
[Cb calv Ac und]
+20.6 +3.0 31 +22 +23 комфорт 1020.3 1014.0 +13.9
09 14.09 В 4 20 км 8/3 600 м
[Cb calv Ac und Ci fib]
+24.7 +2.5 24 +24 +27 комфорт 1018.9 1012.7
12 14.09 С 2 20 км 6/3 600 м
[Cb calv Ac und Ci fib]
+24.8 +1.7 22 +24 +25 комфорт 1018.0 1011.8
15 14.09 С 3 н/о 8/0
[Ac und Ci sp]
+20.8 +2.7 30 +22 +22 комфорт 1018.1 1011.8 +25.6
18 14.09 СЗ 3 н/о 9/0
[Ac und Ci sp]
+20.0 +2.7 32 +21 +21 комфорт 1017.6 1011.3 +25.6
21 14.09 СЗ 4 н/о 9/0
[Ac und Ci sp]
+16.6 +3.6 42 +16 +16 тепло 1017.5 1011.1
00 15.09 С 3 н/о 9/3 600 м
[Cb calv Ac und]
+16.1 +3.2 42 +16 +16 тепло 1017.7 1011.3
03 15.09 СЗ 4 20 км {ливн. осадки} 8/3 600 м
[Cb calv Ac und]
+14.6 +4.0 49 +14 +14 по сезону 1017.9 1011.5
06 15.09 С 3 20 км {ливн. осадки} 3/0
[Ac lent]
+23.2 +4.1 29 +23 +29 комфорт 1018.2 1012.0 +14.6 0.3
09 15.09 СЗ 3 20 км 6/6 600 м
[Cb calv]
+26.3 +2.3 21 +25 +28 комфорт 1017.5 1011.3
12 15.09 СЗ 3 20 км 6/6 600 м
[Cb calv]
+25.9 +1.3 20 +24 +25 комфорт 1017.1 1010.9
15 15.09 ЮЗ 3 н/о 3/0
[Ac cuf]
+20.6 +5.5 37 +22 +22 комфорт 1017.5 1011.2 +27.6
18 15.09 ЮЗ 2 н/о 3/0
[Ac trans]
+15.5 +6.5 55 +16 +16 по сезону 1017.6 1011.2 +27.6
21 15.09 Ю 2 н/о 3/0
[Ac trans]
+12.9 +7.1 68 +12 +12 по сезону 1017.1 1010.7
00 16.09 Ю 1 н/о 9/0
[]
+13.0 +6.8 66 +13 +13 по сезону 1016.5 1010.1
03 16.09 ЮЗ 1 20 км 9/0
[Ac und Ci sp]
+14.6 +7.3 62 +15 +16 по сезону 1017.2 1010.8
06 16.09 ЮЗ 1 20 км 8/0
[Ac und]
+24.0 +4.3 28 +24 +28 комфорт 1017.0 1010.8 +11.9
09 16.09 ЮЗ 7 20 км 8/3 1000 м
[Cu med, cong Ac und Ci fib]
+27.4 -0.5 16 +25 +26 комфорт 1015.7 1009.6
12 16.09 ЮЗ 7 20 км 8/4 600 м
[Cb calv Ac und]
+27.1 -0.5 16 +25 +25 комфорт 1014.9 1008.8
15 16.09 ЮЗ 2
{15}
н/о 6/0
[Ci sp]
+21.1 +1.3 27 +21 +21 комфорт 1015.2 1008.9 +28.1
18 16.09 Ю 1 н/о 3/0
[Ci sp]
+15.6 +6.7 55 +16 +16 по сезону 1016.1 1009.7 +28.1
21 16.09 ЮЗ 2 н/о ясно +14.0 +8.2 68 +14 +14 по сезону 1016.2 1009.8
00 17.09 ЮВ 1 н/о ясно +12.3 +4.6 59 +13 +13 тепло 1016.2 1009.8
03 17.09 ЮВ 2 20 км ясно +13.5 +2.3 47 +13 +14 по сезону 1016.3 1009.9
06 17.09 Ю 2 20 км ясно +23.9 +8.4 37 +24 +33 комфорт 1016.7 1010.5 +11.0
09 17.09 ЮЗ 7 20 км ясно +27.7 +3.6 21 +26 +29 жарко 1015.4 1009.3
12 17.09 ЮЗ 7 20 км ясно +28.4 +2.7 19 +26 +27 жарко 1014.1 1008.0
15 17.09 Ю 2 н/о 5/0
[Ac lent Ci sp]
+22.0 +7.8 40 +23 +23 комфорт 1013.7 1007.5 +28.7
18 17.09 В 1 н/о 9/0
[Ac und]
+21.6 +5.3 35 +22 +22 комфорт 1013.7 1007.5 +28.7
21 17.09 ЮЗ 1 н/о 9/0
[Ac und]
+19.7 +3.0 33 +21 +21 комфорт 1013.2 1006.9
00 18.09 СЗ 2 н/о в посл. час ливневой дождь 10/6 600 м
[Cb calv Ac und]
+18.4 +6.5 46 +19 +19 тепло 1013.0 1006.7
03 18.09 СВ 4 20 км 8/3 600 м
[Cb calv Ac und Ci sp]
+17.3 +3.6 40 +17 +17 тепло 1012.0 1005.7

 

Местоположение метеостанции Аральск (Кызылординская область, Казахстан): широта 46.78 долгота 61.65 высота над уровнем моря 62 м.

В архиве по умолчанию представлена погода в Аральске за последнюю неделю. Архивные данные за месяц целиком и за предыдущие месяцы, начиная с января 2011 года, Вы можете получить, выбрав интересующий диапазон дат из раскрывающегося списка и нажав кнопку "Ввод!".


*Определитесь, кто Вы:
робот инопланетянин человек

Внимание! Время в таблицах - всемирное. Для получения местного времени необходимо прибавить поправку, которая равна 6 ч.

Смотрите также архив погоды в соседних городах и на ближайших метеорологических станциях:

Погода в Казалинске (Кызылординская область, Казахстан) (118 км)
Погода в Каукее (Кызылординская область, Казахстан) (176 км)
Погода в Акае (Кызылординская область, Казахстан) (180 км)
Погода в Аяккуме (Актюбинская область, Казахстан) (189 км)
Погода в Шалкаре (Актюбинская область, Казахстан) (194 км)
Погода в Иргизе (Актюбинская область, Казахстан) (207 км)
Погода в Кульжамбае (Карагандинская область, Казахстан) (217 км)
Погода в Нуре (Актюбинская область, Казахстан) (230 км)
Погода в Жосалы (Кызылординская область, Казахстан) (235 км)
Погода в Караке (Кызылординская область, Казахстан) (242 км)

Пояснения к столбцам:

Ветер - указаны скорость ветра в м/с - средняя за 10 мин, порывы в срок и между сроками (в фигурных скобках) и направление, откуда дует ветер: С - северный, СВ - северо-восточный, В - восточный, ЮВ - юго-восточный, Ю - южный, ЮЗ - юго-западный, З - западный, СЗ - северо-западный.
Видимость - горизонтальная дальность видимости в метрах или километрах. При видимости от 1 до 10 км при отсутствии осадков обычно наблюдается дымка, при ухудшении видимости до 1 км и менее - туман. В сухую погоду видимость может ухудшаться дымом, пылью или мглою.
Явления - указаны атмосферные явления, наблюдавшиеся в срок или в последний час перед сроком; фигурными скобками обозначены явления, наблюдавшиеся между сроками (за 1-3 часа до срока); квадратными скобками обозначены град или гололедные отложения с указанием их диаметра в мм.
Облачность - указаны через наклонную черту общая и нижняя облачность в баллах и высота нижней границы облаков в метрах; квадратными скобками обозначены формы облаков: Ci - перистые, Cs - перисто-слоистые, Cc - перисто-кучевые, Ac - высококучевые, As - высокослоистые, Sc - слоисто-кучевые, Ns - слоисто-дождевые, Cu - кучевые, Cb - кучево-дождевые. Подробнее классификацию облаков см. в Атласе облаков (PDF).
T - Температура воздуха - температура, измеренная на высоте 2 м над землей.
Td - Температура точки росы - температура, при понижении до которой содержащийся в воздухе водяной пар достигнет насыщения.
f - Относительная влажность воздуха - влажноcть воздуха, измеренная на высоте 2 м над землей.
Te - Эффективная температура - температура, которую ощущает одетый по сезону человек в тени. Характеристика душности погоды. При расчете учитывается влияние влажности воздуха и скорости ветра на теплоощущения человека.
Tes - Эффективная температура на солнце - температура, которую ощущает человек, с поправкой на солнечный нагрев. Характеристика знойности погоды. Зависит от высоты солнца над горизонтом, облачности и скорости ветра. Ночью, в пасмурную погоду, а также при ветре 12 м/с и более поправка равна нулю.
P - Атмосферное давление - приведенное к уровню моря атмосферное давление.
Po - Атмосферное давление - измеренное на уровне метеостанции атмосферное давление.
Tmin - Минимальная температура - минимум температуры воздуха на высоте 2 м над землей.
Tmax - Максимальная температура - максимум температуры воздуха на высоте 2 м над землей.
R - Количество осадков - Количество выпавших осадков за период времени, мм. При наведении курсора мыши на число - период времени, за который выпало указанное количество осадков.
R24 - Количество осадков - Количество выпавших осадков за 24 часа, мм.
S - Снежный покров - Высота снежного покрова, см. При наведении курсора мыши на число - состояние снежного покрова и степень покрытия местности в баллах.